Ephrata, WA
on Monday, November 5, 2012

Monday
Previous Day Next Day
Daily Summary
 ActualAverageRecord
Temperature
Mean Temperature °F 41°F  
Max Temperature 65°F 51°F 65°F (2012)
Min Temperature 41°F 32°F 10°F (1973)
Degree Days
Heating Degree Days 12 24  
Month to date heating degree days 73 114  
Since 1 July heating degree days 568 695  
Cooling Degree Days 0 0  
Month to date cooling degree days 0 0  
Year to date cooling degree days 837 772  
Growing Degree Days3 (Base °F )  
Moisture
Dew Point 43°F   
Average Humidity 67    
Maximum Humidity 100    
Minimum Humidity 34    
Precipitation
Precipitation 0.00 in 0.04 in 0.82 in (1998)
Month to date precipitation 0.05 0.15  
Year to date precipitation 5.91 5.70  
Wind
Wind Speed 5 mph   
Max Wind Speed 14 mph   
Max Gust Speed 17 mph   
Visibility 5 miles   
Events Fog   

Key: T is trace of precipitation, MM is missing value
Source: NWS Daily Summary
Time(PST)TemperatureDew PointHumidity Pressure Visibility Wind DirectionWind SpeedGust SpeedPrecipitationEvents Conditions
12:30 AM 44.6°F 44.6°F 100% 30.20 in 2.0 miles Calm Calm - N/A   Partly Cloudy
12:53 AM 46.9°F 46.0°F 97% 30.21 in 2.5 miles SSW 6.9 mph - N/A   Partly Cloudy
1:00 AM 46.4°F 46.4°F 100% 30.20 in 3.0 miles SSW 6.9 mph - N/A   Clear
1:53 AM 48.9°F 46.9°F 93% 30.19 in 8.0 miles South 4.6 mph - N/A   Clear
2:07 AM 46.4°F 44.6°F 93% 30.18 in 1.2 miles NE 3.5 mph - N/A   Partly Cloudy
2:18 AM 46.4°F 46.4°F 100% 30.18 in 2.0 miles Calm Calm - N/A   Clear
2:26 AM 46.4°F 44.6°F 93% 30.18 in 5.0 miles Calm Calm - N/A   Clear
2:29 AM 46.4°F 44.6°F 93% 30.18 in 1.5 miles Calm Calm - N/A   Clear
2:37 AM 44.6°F 44.6°F 100% 30.18 in 0.2 miles NNE 3.5 mph - N/A Fog Fog
2:53 AM 45.0°F 44.1°F 97% 30.19 in 0.5 miles NNW 5.8 mph - N/A Fog Fog
3:05 AM 44.6°F 44.6°F 100% 30.17 in 0.2 miles North 3.5 mph - N/A Fog Fog
3:29 AM 42.8°F 42.8°F 100% 30.16 in 0.8 miles Calm Calm - N/A   Mist
3:51 AM 44.6°F 44.6°F 100% 30.15 in 0.2 miles North 3.5 mph - N/A Fog Fog
3:53 AM 44.1°F 44.1°F 100% 30.16 in 0.2 miles North 4.6 mph - N/A Fog Fog
4:53 AM 45.0°F 44.1°F 97% 30.16 in 0.2 miles NNE 8.1 mph - N/A Fog Fog
5:11 AM 44.6°F 44.6°F 100% 30.14 in 0.8 miles NNE 6.9 mph - N/A   Mist
5:36 AM 44.6°F 42.8°F 93% 30.14 in 0.2 miles North 4.6 mph - N/A Fog Fog
5:53 AM 45.0°F 44.1°F 97% 30.16 in 0.2 miles NNE 4.6 mph - N/A Fog Fog
6:53 AM 45.0°F 44.1°F 97% 30.17 in 0.2 miles North 6.9 mph - 0.01 in Fog Fog
7:53 AM 46.9°F 46.0°F 97% 30.19 in 0.2 miles NNW 5.8 mph - N/A Fog Fog
8:07 AM 48.2°F 46.4°F 93% 30.19 in 1.2 miles NNW 9.2 mph - N/A   Scattered Clouds
8:11 AM 48.2°F 46.4°F 93% 30.19 in 3.0 miles NNW 9.2 mph - N/A   Scattered Clouds
8:53 AM 52.0°F 50.0°F 93% 30.21 in 10.0 miles Calm Calm - N/A   Clear
9:53 AM 55.0°F 50.0°F 83% 30.22 in 10.0 miles SW 9.2 mph - N/A   Clear
10:53 AM 57.9°F 50.0°F 75% 30.25 in 10.0 miles SE 4.6 mph - N/A   Clear
11:53 AM 63.0°F 43.0°F 48% 30.23 in 10.0 miles SW 9.2 mph - N/A   Clear
12:53 PM 64.9°F 36.0°F 34% 30.22 in 10.0 miles West 9.2 mph - N/A   Clear
1:53 PM 63.0°F 41.0°F 45% 30.22 in 10.0 miles SSW 5.8 mph - N/A   Clear
2:53 PM 61.0°F 39.0°F 44% 30.23 in 4.0 miles WSW 4.6 mph - N/A   Haze
3:53 PM 59.0°F 39.9°F 49% 30.23 in 10.0 miles Calm Calm - N/A   Clear
4:53 PM 55.0°F 39.9°F 57% 30.22 in 10.0 miles Calm Calm - N/A   Clear
5:53 PM 51.1°F 41.0°F 68% 30.22 in 10.0 miles West 3.5 mph - N/A   Clear
6:53 PM 51.1°F 37.0°F 59% 30.21 in 10.0 miles North 3.5 mph - N/A   Clear
7:53 PM 48.9°F 36.0°F 61% 30.21 in 10.0 miles NNW 4.6 mph - N/A   Clear
8:53 PM 42.1°F 36.0°F 79% 30.22 in 10.0 miles North 4.6 mph - N/A   Clear
9:53 PM 42.1°F 36.0°F 79% 30.20 in 10.0 miles North 4.6 mph - N/A   Clear
10:53 PM 43.0°F 37.0°F 80% 30.19 in 10.0 miles North 8.1 mph - N/A   Clear
11:53 PM 43.0°F 41.0°F 93% 30.19 in 10.0 miles North 5.8 mph - N/A   Clear
Moon Phase
Nov. 05 Nov. 06 Nov. 13 Nov. 20 Nov. 28
Sunrise:06:48 AM (PST) Moon Rise:10:17 PM (PST)11/5
Sunset:04:34 PM (PST) Moon Set:12:11 PM (PST)11/5

Copyright © 2014 The Weather Underground, Inc.